Time,TemperatureF,DewpointF,PressureIn,WindDirection,WindDirectionDegrees,WindSpeedMPH,WindSpeedGustMPH,Humidity,HourlyPrecipIn,Conditions,Clouds,dailyrainin,SoftwareType,DateUTC
2013-04-30 02:50:00,60.0,-99.9,-100.00,SW,226,7.0,7.0,-999,-99.99,,,-99.99,,2013-04-30 07:50:00,
2013-04-30 03:32:00,60.0,-99.9,-100.00,SW,226,7.0,7.0,-999,-99.99,,,-99.99,,2013-04-30 08:32:00,
2013-04-30 03:42:00,60.0,-99.9,-100.00,SW,226,7.0,7.0,-999,-99.99,,,-99.99,,2013-04-30 08:42:00,
2013-04-30 04:30:00,58.0,-99.9,-100.00,WSW,244,6.0,9.0,-999,-99.99,,,-99.99,,2013-04-30 09:30:00,
2013-04-30 05:22:00,58.0,-99.9,-100.00,WSW,244,6.0,9.0,-999,-99.99,,,-99.99,,2013-04-30 10:22:00,
2013-04-30 06:40:00,58.0,-99.9,-100.00,SSW,209,6.0,8.0,-999,-99.99,,,-99.99,,2013-04-30 11:40:00,
2013-04-30 07:22:00,58.0,-99.9,-100.00,SSW,209,6.0,8.0,-999,-99.99,,,-99.99,,2013-04-30 12:22:00,
2013-04-30 07:31:00,58.0,-99.9,-100.00,SSW,209,6.0,8.0,-999,-99.99,,,-99.99,,2013-04-30 12:31:00,
2013-04-30 09:52:00,73.0,-99.9,-100.00,SW,219,10.0,16.0,-999,-99.99,,,-99.99,,2013-04-30 14:52:00,
2013-04-30 10:00:00,77.0,-99.9,-100.00,SW,225,11.0,16.0,-999,-99.99,,,-99.99,,2013-04-30 15:00:00,
2013-04-30 10:02:00,73.0,-99.9,-100.00,SW,219,10.0,16.0,-999,-99.99,,,-99.99,,2013-04-30 15:02:00,
2013-04-30 10:53:00,77.0,-99.9,-100.00,SW,225,11.0,16.0,-999,-99.99,,,-99.99,,2013-04-30 15:53:00,
2013-04-30 11:33:00,79.0,-99.9,-100.00,WSW,253,16.0,18.0,-999,-99.99,,,-99.99,,2013-04-30 16:33:00,
2013-04-30 11:42:00,79.0,-99.9,-100.00,WSW,253,16.0,18.0,-999,-99.99,,,-99.99,,2013-04-30 16:42:00,
2013-04-30 11:53:00,79.0,-99.9,-100.00,WSW,253,16.0,18.0,-999,-99.99,,,-99.99,,2013-04-30 16:53:00,
2013-04-30 13:32:00,86.0,-99.9,-100.00,WSW,238,12.0,18.0,-999,-99.99,,,-99.99,,2013-04-30 18:32:00,
2013-04-30 13:42:00,86.0,-99.9,-100.00,WSW,238,12.0,18.0,-999,-99.99,,,-99.99,,2013-04-30 18:42:00,
2013-04-30 13:52:00,86.0,-99.9,-100.00,WSW,238,12.0,18.0,-999,-99.99,,,-99.99,,2013-04-30 18:52:00,
2013-04-30 15:32:00,89.0,-99.9,-100.00,WSW,258,15.0,15.0,-999,-99.99,,,-99.99,,2013-04-30 20:32:00,
2013-04-30 15:42:00,89.0,-99.9,-100.00,WSW,258,15.0,15.0,-999,-99.99,,,-99.99,,2013-04-30 20:42:00,
2013-04-30 15:52:00,89.0,-99.9,-100.00,WSW,258,15.0,15.0,-999,-99.99,,,-99.99,,2013-04-30 20:52:00,
2013-04-30 17:33:00,86.0,-99.9,-100.00,WSW,246,11.0,16.0,-999,-99.99,,,-99.99,,2013-04-30 22:33:00,
2013-04-30 17:42:00,86.0,-99.9,-100.00,WSW,246,11.0,16.0,-999,-99.99,,,-99.99,,2013-04-30 22:42:00,
2013-04-30 17:53:00,87.0,-99.9,-100.00,West,270,8.0,17.0,-999,-99.99,,,-99.99,,2013-04-30 22:53:00,
2013-04-30 18:03:00,87.0,-99.9,-100.00,West,270,8.0,17.0,-999,-99.99,,,-99.99,,2013-04-30 23:03:00,
2013-04-30 21:32:00,80.0,-99.9,-100.00,South,189,3.0,5.0,-999,-99.99,,,-99.99,,2013-05-01 02:32:00,
2013-04-30 21:42:00,80.0,-99.9,-100.00,South,189,3.0,5.0,-999,-99.99,,,-99.99,,2013-05-01 02:42:00,
2013-04-30 23:32:00,67.0,-99.9,-100.00,WSW,257,0.0,6.0,-999,-99.99,,,-99.99,,2013-05-01 04:32:00,
2013-04-30 23:43:00,67.0,-99.9,-100.00,WSW,257,0.0,6.0,-999,-99.99,,,-99.99,,2013-05-01 04:43:00,
2013-04-30 23:52:00,67.0,-99.9,-100.00,WSW,257,0.0,6.0,-999,-99.99,,,-99.99,,2013-05-01 04:52:00,